Content
SEND FEEDBACK

Daily
Averages
Monthly
Summary
United States of America

MANGILAO, GUAM


Home > North America > United States > Guam
Elevation: 18 meters     Latitude: 13 27N     Longitude: 144 49E

WEATHER
 
SELECT A DAY
Number of Records: 342,038;   Date Range: 1/1/95 - 7/29/14
 
SHARE

PRINT THIS DATA

[ ← Previous Day ]
WEATHER ALMANAC - 18 APRIL, 2014
[ Next Day → ]
[ °F ]   °C
Weather ElementAverageHighLow
Temperature27.1 °C30 °C (12:28 pm)25.7 °C (3:58 am)
Dewpoint24.9 °C26 °C (9:29 pm)23.8 °C (6:58 am)
Humidity88.1 %94 % (1:18 am)74 % (12:28 pm)
Barometer1009.1 hPa1010.8 hPa (9:23 am)1006.8 hPa (3:58 pm)
Wind Speed21.2 km/h33.3 km/h (6:24 am)
Wind Gust31.5 km/h (12:38 pm)
Weather ElementAverage
Visibility16.1 km
Wind DirectionENE (67.9 °)

Weather ElementTotal
Precipitation0.25 mm
Cooling Degree Days9.6 (Base 18.3)
Growing Degree Days17.9 (Base 10)
Averaged from 99 records on 18 April, 2014
WEATHER CONDITIONS BREAKOUT
WIND DIRECTION BREAKOUT
WEATHER BY HOUR - 18 APRIL, 2014
[ °F ]   °C
Local TimeTemperatureDewpointHumidityBarometerVisibilityWind DirectionWind SpeedGust SpeedPrecipitationEventsConditions
12:53 AM26 °C24 °C89 %1010.2 hPa16.1 kmENE (60°)22.2 km/hMostly Cloudy
12:58 AM26.2 °C24.4 °C90 %1009.5 hPa16.1 kmENE (70°)20.4 km/hMostly Cloudy
1:03 AM26 °C24 °C89 %1010.2 hPa16.1 kmENE (70°)18.5 km/hScattered Clouds
1:18 AM26 °C25 °C94 %1009.8 hPa16.1 kmENE (60°)20.4 km/hMostly Cloudy
1:23 AM26 °C25 °C94 %1009.8 hPa16.1 kmENE (60°)18.5 km/hScattered Clouds
1:28 AM26 °C25 °C94 %1009.8 hPa16.1 kmENE (60°)22.2 km/hMostly Cloudy
1:48 AM26 °C24 °C89 %1009.5 hPa16.1 kmENE (70°)22.2 km/hScattered Clouds
1:53 AM26 °C24 °C89 %1009.5 hPa16.1 kmENE (60°)22.2 km/hMostly Cloudy
1:58 AM26.1 °C24.5 °C91 %1008.5 hPa16.1 kmENE (70°)20.4 km/hMostly Cloudy
2:03 AM26 °C24 °C89 %1009.5 hPa16.1 kmENE (70°)18.5 km/hMostly Cloudy
2:08 AM26 °C25 °C94 %1009.1 hPa16.1 kmENE (70°)22.2 km/hScattered Clouds
2:29 AM26 °C25 °C94 %1008.8 hPa16.1 kmNE (50°)24.1 km/hRainLight Rain
2:39 AM26 °C24 °C89 %1008.8 hPa16.1 kmENE (60°)20.4 km/hPartly Cloudy
2:49 AM26 °C25 °C94 %1008.8 hPa16.1 kmENE (60°)24.1 km/hMostly Cloudy
2:54 AM26 °C25 °C94 %1008.5 hPa16.1 kmENE (60°)20.4 km/hMostly Cloudy
2:58 AM26.1 °C24.6 °C91 %1007.5 hPa16.1 kmENE (70°)20.4 km/h0 mmMostly Cloudy
3:03 AM26 °C25 °C94 %1008.5 hPa16.1 kmENE (60°)22.2 km/hScattered Clouds
3:08 AM26 °C25 °C94 %1008.5 hPa16.1 kmNE (50°)22.2 km/hMostly Cloudy
3:23 AM26 °C25 °C94 %1008.5 hPa16.1 kmENE (70°)27.8 km/hMostly Cloudy
3:48 AM26 °C25 °C94 %1008.5 hPa16.1 kmENE (70°)24.1 km/hMostly Cloudy
3:53 AM26 °C24 °C89 %1008.1 hPa16.1 kmENE (70°)24.1 km/hScattered Clouds
3:58 AM25.7 °C24.3 °C92 %1007.1 hPa16.1 kmENE (70°)20.4 km/hScattered Clouds
4:03 AM26 °C25 °C94 %1008.1 hPa16.1 kmENE (70°)22.2 km/hMostly Cloudy
4:13 AM26 °C25 °C94 %1008.1 hPa16.1 kmENE (70°)22.2 km/hMostly Cloudy
4:18 AM26 °C25 °C94 %1008.1 hPa16.1 kmENE (70°)22.2 km/hMostly Cloudy
4:58 AM26.1 °C24.7 °C92 %1007.5 hPa16.1 kmENE (70°)22.2 km/hMostly Cloudy
5:33 AM26 °C25 °C94 %1008.5 hPa16.1 kmENE (60°)25.9 km/hMostly Cloudy
5:38 AM26 °C24 °C89 %1008.8 hPa16.1 kmENE (70°)25.9 km/hMostly Cloudy
5:53 AM26 °C25 °C94 %1008.8 hPa16.1 kmENE (60°)22.2 km/hMostly Cloudy
5:58 AM26.2 °C24.8 °C92 %1007.8 hPa16.1 kmENE (60°)25.9 km/hMostly Cloudy
6:13 AM26 °C25 °C94 %1009.1 hPa16.1 kmENE (60°)24.1 km/hOvercast
6:24 AM26 °C25 °C94 %1009.1 hPa14.5 kmENE (70°)33.3 km/hRainRain
6:39 AM26 °C25 °C94 %1009.1 hPa16.1 kmENE (70°)20.4 km/hMostly Cloudy
6:44 AM26 °C25 °C94 %1009.5 hPa16.1 kmEast (80°)24.1 km/hScattered Clouds
6:58 AM25.9 °C23.8 °C88 %1008.5 hPa16.1 kmENE (70°)20.4 km/h0.25 mmPartly Cloudy
7:53 AM27 °C25 °C89 %1010.2 hPa16.1 kmENE (70°)22.2 km/hMostly Cloudy
7:58 AM27 °C24.9 °C88 %1009.5 hPa16.1 kmENE (70°)20.4 km/hMostly Cloudy
8:38 AM28 °C25 °C84 %1010.5 hPa16.1 kmEast (80°)22.2 km/hScattered Clouds
8:58 AM28.1 °C25.4 °C85 %1009.5 hPa16.1 kmEast (90°)25.9 km/hScattered Clouds
9:23 AM28 °C25 °C84 %1010.8 hPa16.1 kmENE (70°)24.1 km/hMostly Cloudy
9:33 AM28 °C25 °C84 %1010.8 hPa16.1 kmENE (70°)20.4 km/hScattered Clouds
9:58 AM29.4 °C25 °C77 %1009.5 hPa16.1 kmEast (90°)24.1 km/hMostly Cloudy
10:03 AM29 °C25 °C79 %1010.5 hPa16.1 kmEast (100°)24.1 km/hMostly Cloudy
10:33 AM29 °C25 °C79 %1010.5 hPa16.1 kmEast (80°)22.2 km/hScattered Clouds
10:38 AM29 °C25 °C79 %1010.5 hPa16.1 kmENE (70°)22.2 km/hMostly Cloudy
10:56 AM29 °C25 °C79 %1010.2 hPa14.5 kmENE (60°)22.2 km/hRainLight Rain
10:58 AM29 °C25 °C79 %1009.5 hPa14.5 kmENE (60°)20.4 km/hRainLight Rain
11:08 AM29 °C25 °C79 %1010.2 hPa16.1 kmEast (80°)20.4 km/hMostly Cloudy
11:28 AM29 °C25 °C79 %1009.8 hPa16.1 kmENE (70°)16.7 km/hMostly Cloudy
11:58 AM29.2 °C25.2 °C79 %1008.5 hPa16.1 kmEast (80°)20.4 km/h0 mmMostly Cloudy
12:28 PM30 °C25 °C74 %1009.1 hPa16.1 kmEast (80°)24.1 km/hOvercast
12:38 PM30 °C25 °C74 %1009.1 hPa16.1 kmEast (80°)22.2 km/h31.5 km/hMostly Cloudy
12:58 PM29.5 °C25.4 °C78 %1008.1 hPa16.1 kmENE (70°)22.2 km/hMostly Cloudy
1:48 PM29 °C25 °C79 %1008.5 hPa16.1 kmEast (80°)18.5 km/hMostly Cloudy
1:53 PM29 °C25 °C79 %1008.5 hPa16.1 kmEast (80°)25.9 km/hMostly Cloudy
1:58 PM29.1 °C24.9 °C78 %1007.5 hPa16.1 kmENE (60°)25.9 km/hMostly Cloudy
2:13 PM29 °C25 °C79 %1008.5 hPa16.1 kmENE (70°)25.9 km/hMostly Cloudy
2:28 PM29 °C25 °C79 %1008.5 hPa16.1 kmEast (80°)24.1 km/hScattered Clouds
2:38 PM28 °C25 °C84 %1008.5 hPa16.1 kmEast (80°)24.1 km/hScattered Clouds
2:58 PM27.8 °C24.7 °C83 %1007.1 hPa16.1 kmEast (80°)20.4 km/hScattered Clouds
3:33 PM28 °C25 °C84 %1007.8 hPa16.1 kmEast (90°)20.4 km/hMostly Cloudy
3:53 PM28 °C25 °C84 %1007.8 hPa16.1 kmEast (80°)20.4 km/hScattered Clouds
3:58 PM27.7 °C24.5 °C83 %1006.8 hPa16.1 kmENE (70°)18.5 km/hScattered Clouds
4:43 PM28 °C25 °C84 %1007.8 hPa16.1 kmENE (70°)16.7 km/hMostly Cloudy
4:58 PM27.6 °C24.5 °C83 %1006.8 hPa16.1 kmENE (70°)20.4 km/hOvercast
5:13 PM27 °C24 °C84 %1007.8 hPa16.1 kmENE (70°)20.4 km/hMostly Cloudy
5:18 PM27 °C24 °C84 %1007.8 hPa16.1 kmENE (60°)18.5 km/hScattered Clouds
5:58 PM27.1 °C24.6 °C86 %1007.1 hPa16.1 kmENE (70°)16.7 km/hClear
6:28 PM27 °C25 °C89 %1008.5 hPa16.1 kmENE (60°)20.4 km/hMostly Cloudy
6:53 PM27 °C25 °C89 %1009.1 hPa16.1 kmENE (60°)22.2 km/hOvercast
6:58 PM26.9 °C25 °C89 %1008.1 hPa16.1 kmENE (60°)20.4 km/hOvercast
7:08 PM27 °C25 °C89 %1009.1 hPa16.1 kmENE (60°)20.4 km/hMostly Cloudy
7:33 PM27 °C25 °C89 %1009.5 hPa16.1 kmENE (60°)22.2 km/hOvercast
7:43 PM27 °C25 °C89 %1009.5 hPa16.1 kmENE (60°)20.4 km/hMostly Cloudy
7:53 PM27 °C25 °C89 %1009.5 hPa16.1 kmENE (60°)22.2 km/hMostly Cloudy
7:58 PM26.9 °C25 °C89 %1008.5 hPa16.1 kmENE (60°)20.4 km/hMostly Cloudy
8:23 PM27 °C25 °C89 %1009.8 hPa16.1 kmENE (70°)18.5 km/hScattered Clouds
8:28 PM27 °C25 °C89 %1009.8 hPa16.1 kmENE (60°)20.4 km/hMostly Cloudy
8:58 PM26.8 °C25 °C90 %1009.5 hPa16.1 kmENE (70°)18.5 km/hMostly Cloudy
9:24 PM27 °C25 °C89 %1010.2 hPa16.1 kmENE (60°)24.1 km/hRainLight Rain
9:29 PM27 °C26 °C94 %1010.2 hPa16.1 kmENE (60°)22.2 km/hRainLight Rain
9:34 PM27 °C26 °C94 %1010.2 hPa16.1 kmENE (70°)18.5 km/hLight Drizzle
9:36 PM27 °C25 °C89 %1010.2 hPa16.1 kmENE (70°)20.4 km/hMostly Cloudy
9:41 PM27 °C25 °C89 %1010.2 hPa16.1 kmENE (60°)20.4 km/hOvercast
9:51 PM27 °C26 °C94 %1010.5 hPa16.1 kmENE (70°)18.5 km/hMostly Cloudy
9:58 PM26.4 °C25.4 °C94 %1009.5 hPa16.1 kmENE (70°)18.5 km/h0 mmMostly Cloudy
10:08 PM26 °C25 °C94 %1010.5 hPa16.1 kmENE (70°)16.7 km/hMostly Cloudy
10:18 PM26 °C25 °C94 %1010.5 hPa16.1 kmENE (70°)14.8 km/hMostly Cloudy
10:28 PM26 °C25 °C94 %1010.5 hPa16.1 kmENE (60°)18.5 km/hMostly Cloudy
10:33 PM27 °C25 °C89 %1010.5 hPa16.1 kmENE (60°)18.5 km/hMostly Cloudy
10:43 PM27 °C25 °C89 %1010.5 hPa16.1 kmENE (60°)16.7 km/hMostly Cloudy
10:48 PM27 °C25 °C89 %1010.5 hPa16.1 kmENE (60°)20.4 km/hMostly Cloudy
10:53 PM27 °C25 °C89 %1010.5 hPa16.1 kmENE (60°)18.5 km/hMostly Cloudy
10:58 PM26.7 °C25.5 °C93 %1009.5 hPa16.1 kmENE (60°)20.4 km/hMostly Cloudy
11:33 PM27 °C25 °C89 %1010.2 hPa16.1 kmENE (60°)18.5 km/hMostly Cloudy
11:38 PM27 °C25 °C89 %1010.2 hPa16.1 kmENE (60°)16.7 km/hOvercast
11:48 PM27 °C25 °C89 %1010.2 hPa16.1 kmENE (70°)16.7 km/hMostly Cloudy
11:58 PM26 °C25 °C94 %1009.5 hPa16.1 kmENE (60°)14.8 km/hScattered Clouds
11:59 PM26 °C25 °C94 %1010.2 hPa16.1 kmENE (60°)18.5 km/hLight Drizzle
Hourly data recorded from PGUA, located 0 kilometers away from Mangilao, Guam







STORIES FROM OUR PARTNERS